Time,TemperatureF,DewpointF,PressureIn,WindDirection,WindDirectionDegrees,WindSpeedMPH,WindSpeedGustMPH,Humidity,HourlyPrecipIn,Conditions,Clouds,dailyrainin,SoftwareType,DateUTC
2013-11-18 00:03:00,66.2,65.0,29.99,NE,48,10.0,15.0,97,0.01,,,0.02,weatherlink.com 1.10,2013-11-18 05:03:00,
2013-11-18 00:18:00,65.9,65.0,29.98,NE,38,11.0,13.0,97,0.01,,,0.02,weatherlink.com 1.10,2013-11-18 05:18:00,
2013-11-18 00:33:00,66.0,65.0,29.97,NNE,28,10.0,15.0,97,0.00,,,0.00,weatherlink.com 1.10,2013-11-18 05:33:00,
2013-11-18 00:48:00,66.2,65.0,29.96,NE,34,11.0,14.0,96,0.00,,,0.00,weatherlink.com 1.10,2013-11-18 05:48:00,
2013-11-18 01:03:00,66.4,65.0,29.96,NNE,13,10.0,14.0,96,0.00,,,0.00,weatherlink.com 1.10,2013-11-18 06:03:00,
2013-11-18 01:18:00,66.8,66.0,29.95,NNE,20,13.0,17.0,96,0.00,,,0.00,weatherlink.com 1.10,2013-11-18 06:18:00,
2013-11-18 01:33:00,66.5,65.0,29.95,NNE,21,8.0,16.0,96,0.00,,,0.00,weatherlink.com 1.10,2013-11-18 06:33:00,
2013-11-18 01:48:00,66.5,66.0,29.94,NE,35,9.0,14.0,97,0.00,,,0.00,weatherlink.com 1.10,2013-11-18 06:48:00,
2013-11-18 02:03:00,66.8,66.0,29.93,NNE,32,12.0,14.0,97,0.00,,,0.00,weatherlink.com 1.10,2013-11-18 07:03:00,
2013-11-18 02:18:00,66.9,66.0,29.93,NE,55,15.0,21.0,97,0.00,,,0.00,weatherlink.com 1.10,2013-11-18 07:18:00,
2013-11-18 02:33:00,66.7,66.0,29.92,NE,36,11.0,17.0,97,0.00,,,0.00,weatherlink.com 1.10,2013-11-18 07:33:00,
2013-11-18 02:48:00,66.7,66.0,29.92,NE,41,19.0,20.0,97,0.00,,,0.00,weatherlink.com 1.10,2013-11-18 07:48:00,
2013-11-18 03:03:00,66.7,66.0,29.91,NNE,30,13.0,20.0,97,0.00,,,0.00,weatherlink.com 1.10,2013-11-18 08:03:00,
2013-11-18 03:18:00,67.1,66.0,29.91,NE,39,20.0,22.0,97,0.00,,,0.00,weatherlink.com 1.10,2013-11-18 08:18:00,
2013-11-18 03:33:00,67.3,66.0,29.90,ENE,70,11.0,22.0,96,0.00,,,0.00,weatherlink.com 1.10,2013-11-18 08:33:00,
2013-11-18 03:48:00,67.3,66.0,29.90,North,357,17.0,21.0,96,0.00,,,0.00,weatherlink.com 1.10,2013-11-18 08:48:00,
2013-11-18 04:03:00,67.4,66.0,29.91,ENE,65,10.0,21.0,96,0.00,,,0.00,weatherlink.com 1.10,2013-11-18 09:03:00,
2013-11-18 04:18:00,67.1,66.0,29.91,ENE,65,14.0,18.0,96,0.00,,,0.00,weatherlink.com 1.10,2013-11-18 09:18:00,
2013-11-18 04:33:00,66.8,66.0,29.91,East,79,14.0,16.0,96,0.00,,,0.00,weatherlink.com 1.10,2013-11-18 09:33:00,
2013-11-18 04:48:00,66.5,65.0,29.90,North,359,6.0,16.0,96,0.00,,,0.00,weatherlink.com 1.10,2013-11-18 09:48:00,
2013-11-18 05:03:00,66.3,66.0,29.90,NNE,31,10.0,12.0,97,0.00,,,0.00,weatherlink.com 1.10,2013-11-18 10:03:00,
2013-11-18 05:18:00,66.6,66.0,29.90,NE,34,9.0,13.0,97,0.00,,,0.00,weatherlink.com 1.10,2013-11-18 10:18:00,
2013-11-18 05:33:00,66.3,66.0,29.90,NE,41,15.0,16.0,97,0.00,,,0.00,weatherlink.com 1.10,2013-11-18 10:33:00,
2013-11-18 05:48:00,66.5,66.0,29.90,NNE,21,11.0,14.0,97,0.00,,,0.00,weatherlink.com 1.10,2013-11-18 10:48:00,
2013-11-18 06:03:00,66.4,66.0,29.90,NNE,32,11.0,15.0,97,0.00,,,0.00,weatherlink.com 1.10,2013-11-18 11:03:00,
2013-11-18 06:18:00,66.4,66.0,29.90,ENE,58,14.0,16.0,97,0.00,,,0.00,weatherlink.com 1.10,2013-11-18 11:18:00,
2013-11-18 06:33:00,66.5,66.0,29.90,NNE,18,11.0,16.0,97,0.00,,,0.00,weatherlink.com 1.10,2013-11-18 11:33:00,
2013-11-18 06:48:00,66.7,66.0,29.89,NE,47,8.0,15.0,97,0.00,,,0.00,weatherlink.com 1.10,2013-11-18 11:48:00,
2013-11-18 07:03:00,67.0,66.0,29.89,NE,49,12.0,13.0,97,0.00,,,0.00,weatherlink.com 1.10,2013-11-18 12:03:00,
2013-11-18 07:18:00,67.1,66.0,29.89,ENE,66,10.0,14.0,97,0.00,,,0.00,weatherlink.com 1.10,2013-11-18 12:18:00,
2013-11-18 07:33:00,66.5,66.0,29.89,NE,44,4.0,10.0,97,0.00,,,0.00,weatherlink.com 1.10,2013-11-18 12:33:00,
2013-11-18 07:49:00,66.6,66.0,29.88,ENE,71,4.0,14.0,97,0.00,,,0.00,weatherlink.com 1.10,2013-11-18 12:49:00,
2013-11-18 08:04:00,67.1,66.0,29.89,East,87,2.0,11.0,97,0.00,,,0.00,weatherlink.com 1.10,2013-11-18 13:04:00,
2013-11-18 08:19:00,67.1,66.0,29.90,NE,56,6.0,7.0,97,0.00,,,0.00,weatherlink.com 1.10,2013-11-18 13:19:00,
2013-11-18 08:34:00,66.9,66.0,29.90,East,80,5.0,8.0,97,0.00,,,0.00,weatherlink.com 1.10,2013-11-18 13:34:00,
2013-11-18 08:49:00,66.9,66.0,29.90,East,91,6.0,9.0,97,0.00,,,0.00,weatherlink.com 1.10,2013-11-18 13:49:00,
2013-11-18 09:04:00,66.7,66.0,29.90,East,90,3.0,10.0,97,0.00,,,0.00,weatherlink.com 1.10,2013-11-18 14:04:00,
2013-11-18 09:19:00,66.7,66.0,29.89,East,86,5.0,11.0,97,0.00,,,0.00,weatherlink.com 1.10,2013-11-18 14:19:00,
2013-11-18 09:34:00,66.8,66.0,29.89,NE,53,4.0,7.0,97,0.00,,,0.00,weatherlink.com 1.10,2013-11-18 14:34:00,
2013-11-18 09:49:00,66.9,66.0,29.89,ESE,109,4.0,9.0,97,0.00,,,0.00,weatherlink.com 1.10,2013-11-18 14:49:00,
2013-11-18 10:04:00,67.2,66.0,29.89,ENE,72,9.0,10.0,97,0.00,,,0.00,weatherlink.com 1.10,2013-11-18 15:04:00,
2013-11-18 10:19:00,67.1,66.0,29.88,NE,54,4.0,12.0,97,0.00,,,0.00,weatherlink.com 1.10,2013-11-18 15:19:00,
2013-11-18 10:34:00,67.1,66.0,29.87,East,88,5.0,10.0,97,0.00,,,0.00,weatherlink.com 1.10,2013-11-18 15:34:00,
2013-11-18 10:49:00,67.2,66.0,29.86,NE,56,7.0,9.0,96,0.00,,,0.00,weatherlink.com 1.10,2013-11-18 15:49:00,
2013-11-18 11:04:00,66.8,66.0,29.86,East,85,8.0,10.0,96,0.00,,,0.00,weatherlink.com 1.10,2013-11-18 16:04:00,
2013-11-18 11:19:00,66.9,66.0,29.85,NNE,32,5.0,11.0,96,0.00,,,0.00,weatherlink.com 1.10,2013-11-18 16:19:00,
2013-11-18 11:34:00,66.9,66.0,29.84,East,90,4.0,11.0,96,0.00,,,0.00,weatherlink.com 1.10,2013-11-18 16:34:00,
2013-11-18 11:49:00,67.5,66.0,29.83,ENE,78,7.0,12.0,96,0.00,,,0.00,weatherlink.com 1.10,2013-11-18 16:49:00,
2013-11-18 12:04:00,68.1,67.0,29.82,ENE,71,6.0,9.0,96,0.00,,,0.00,weatherlink.com 1.10,2013-11-18 17:04:00,
2013-11-18 12:19:00,68.7,67.0,29.82,ENE,71,3.0,9.0,95,0.00,,,0.00,weatherlink.com 1.10,2013-11-18 17:19:00,
2013-11-18 12:34:00,69.1,67.0,29.81,ENE,66,4.0,9.0,94,0.00,,,0.00,weatherlink.com 1.10,2013-11-18 17:34:00,
2013-11-18 12:49:00,69.2,67.0,29.80,East,91,5.0,12.0,92,0.00,,,0.00,weatherlink.com 1.10,2013-11-18 17:49:00,
2013-11-18 13:04:00,69.4,67.0,29.80,East,99,9.0,10.0,92,0.00,,,0.00,weatherlink.com 1.10,2013-11-18 18:04:00,
2013-11-18 13:19:00,69.1,67.0,29.79,ENE,71,4.0,7.0,92,0.00,,,0.00,weatherlink.com 1.10,2013-11-18 18:19:00,
2013-11-18 13:34:00,68.7,66.0,29.79,ENE,74,7.0,12.0,92,0.00,,,0.00,weatherlink.com 1.10,2013-11-18 18:34:00,
2013-11-18 13:49:00,68.3,66.0,29.79,ENE,61,8.0,11.0,93,0.00,,,0.00,weatherlink.com 1.10,2013-11-18 18:49:00,
2013-11-18 14:04:00,67.7,66.0,29.79,NE,49,7.0,11.0,93,0.00,,,0.00,weatherlink.com 1.10,2013-11-18 19:04:00,
2013-11-18 14:19:00,67.7,66.0,29.79,ENE,70,11.0,11.0,94,0.00,,,0.00,weatherlink.com 1.10,2013-11-18 19:19:00,
2013-11-18 14:34:00,67.5,66.0,29.79,ENE,63,10.0,12.0,95,0.00,,,0.00,weatherlink.com 1.10,2013-11-18 19:34:00,
2013-11-18 14:49:00,67.2,66.0,29.79,ENE,75,9.0,13.0,95,0.00,,,0.00,weatherlink.com 1.10,2013-11-18 19:49:00,
2013-11-18 15:04:00,67.6,67.0,29.78,ENE,60,12.0,14.0,96,0.00,,,0.00,weatherlink.com 1.10,2013-11-18 20:04:00,
2013-11-18 15:19:00,67.3,66.0,29.78,ENE,68,10.0,13.0,95,0.00,,,0.00,weatherlink.com 1.10,2013-11-18 20:19:00,
2013-11-18 15:34:00,67.1,66.0,29.79,East,88,5.0,8.0,96,0.00,,,0.00,weatherlink.com 1.10,2013-11-18 20:34:00,
2013-11-18 15:49:00,67.1,66.0,29.80,ENE,78,2.0,8.0,96,0.00,,,0.00,weatherlink.com 1.10,2013-11-18 20:49:00,
2013-11-18 16:04:00,67.3,66.0,29.80,ENE,75,3.0,8.0,96,0.00,,,0.00,weatherlink.com 1.10,2013-11-18 21:04:00,
2013-11-18 16:19:00,67.4,66.0,29.80,East,89,3.0,8.0,95,0.00,,,0.00,weatherlink.com 1.10,2013-11-18 21:19:00,
2013-11-18 16:35:00,66.7,65.0,29.80,East,83,5.0,8.0,95,0.00,,,0.00,weatherlink.com 1.10,2013-11-18 21:35:00,
2013-11-18 16:49:00,66.5,65.0,29.80,ENE,74,2.0,7.0,96,0.00,,,0.00,weatherlink.com 1.10,2013-11-18 21:49:00,
2013-11-18 17:04:00,66.4,65.0,29.80,East,98,8.0,9.0,96,0.00,,,0.00,weatherlink.com 1.10,2013-11-18 22:04:00,
2013-11-18 17:19:00,66.3,65.0,29.80,East,101,5.0,7.0,96,0.00,,,0.00,weatherlink.com 1.10,2013-11-18 22:19:00,
2013-11-18 17:34:00,66.0,65.0,29.81,ENE,77,2.0,7.0,96,0.00,,,0.00,weatherlink.com 1.10,2013-11-18 22:34:00,
2013-11-18 17:49:00,66.3,66.0,29.81,East,101,4.0,8.0,97,0.00,,,0.00,weatherlink.com 1.10,2013-11-18 22:49:00,
2013-11-18 18:04:00,66.6,66.0,29.82,East,100,5.0,6.0,97,0.00,,,0.00,weatherlink.com 1.10,2013-11-18 23:04:00,
2013-11-18 18:19:00,66.3,65.0,29.82,ESE,113,5.0,11.0,96,0.00,,,0.00,weatherlink.com 1.10,2013-11-18 23:19:00,
2013-11-18 18:36:00,63.2,62.0,29.83,SE,134,8.0,12.0,96,0.00,,,0.00,weatherlink.com 1.10,2013-11-18 23:36:00,
2013-11-18 18:50:00,62.2,61.0,29.83,SE,146,6.0,11.0,96,0.00,,,0.00,weatherlink.com 1.10,2013-11-18 23:50:00,
2013-11-18 19:05:00,61.6,60.0,29.83,SSE,160,3.0,8.0,95,0.00,,,0.00,weatherlink.com 1.10,2013-11-19 00:05:00,
2013-11-18 19:20:00,61.0,59.0,29.83,SE,140,3.0,8.0,94,0.00,,,0.00,weatherlink.com 1.10,2013-11-19 00:20:00,
2013-11-18 19:35:00,60.7,59.0,29.84,South,178,3.0,6.0,93,0.00,,,0.00,weatherlink.com 1.10,2013-11-19 00:35:00,
2013-11-18 19:50:00,60.9,58.0,29.84,South,187,4.0,5.0,91,0.00,,,0.00,weatherlink.com 1.10,2013-11-19 00:50:00,
2013-11-18 20:05:00,60.9,58.0,29.85,SSW,195,2.0,6.0,90,0.00,,,0.00,weatherlink.com 1.10,2013-11-19 01:05:00,
2013-11-18 20:20:00,61.2,56.0,29.84,SSW,208,6.0,7.0,84,0.00,,,0.00,weatherlink.com 1.10,2013-11-19 01:20:00,
2013-11-18 20:35:00,61.4,56.0,29.85,SSE,168,2.0,7.0,83,0.00,,,0.00,weatherlink.com 1.10,2013-11-19 01:35:00,
2013-11-18 20:50:00,61.0,56.0,29.84,South,169,4.0,7.0,82,0.00,,,0.00,weatherlink.com 1.10,2013-11-19 01:50:00,
2013-11-18 21:05:00,61.0,55.0,29.84,SSW,203,5.0,7.0,81,0.00,,,0.00,weatherlink.com 1.10,2013-11-19 02:05:00,
2013-11-18 21:20:00,61.1,55.0,29.85,SSE,153,5.0,9.0,80,0.00,,,0.00,weatherlink.com 1.10,2013-11-19 02:20:00,
2013-11-18 21:35:00,61.3,54.0,29.85,South,186,7.0,11.0,78,0.00,,,0.00,weatherlink.com 1.10,2013-11-19 02:35:00,
2013-11-18 21:50:00,61.6,54.0,29.85,South,179,11.0,11.0,75,0.00,,,0.00,weatherlink.com 1.10,2013-11-19 02:50:00,
2013-11-18 22:05:00,61.5,54.0,29.86,ESE,115,9.0,13.0,75,0.00,,,0.00,weatherlink.com 1.10,2013-11-19 03:05:00,
2013-11-18 22:20:00,61.4,52.0,29.86,ESE,122,11.0,15.0,72,0.00,,,0.00,weatherlink.com 1.10,2013-11-19 03:20:00,
2013-11-18 22:35:00,61.2,52.0,29.86,SE,131,12.0,15.0,73,0.00,,,0.00,weatherlink.com 1.10,2013-11-19 03:35:00,
2013-11-18 22:50:00,60.9,53.0,29.86,SE,127,10.0,14.0,74,0.00,,,0.00,weatherlink.com 1.10,2013-11-19 03:50:00,
2013-11-18 23:05:00,61.3,51.0,29.86,SE,146,11.0,15.0,69,0.00,,,0.00,weatherlink.com 1.10,2013-11-19 04:05:00,
2013-11-18 23:20:00,61.3,51.0,29.86,SSE,156,8.0,14.0,69,0.00,,,0.00,weatherlink.com 1.10,2013-11-19 04:20:00,
2013-11-18 23:35:00,61.1,51.0,29.86,SE,146,10.0,13.0,69,0.00,,,0.00,weatherlink.com 1.10,2013-11-19 04:35:00,
2013-11-18 23:50:00,60.9,50.0,29.87,SE,137,10.0,14.0,68,0.00,,,0.00,weatherlink.com 1.10,2013-11-19 04:50:00,